Location: Recife
(8.0585°S, 34.8848°W)
Time: 11:36:56
(UTC-03:00)

Vanguard 2 Rocket - Pass Details

Date: 21 April 2026
Orbit: 553 x 3286 km, 32.9° (Epoch: 8 May)

Event Time Altitude Azimuth Distance (km) Brightness Sun altitude
Rises 07:23:48 0° 231° (SW) 4,405 9.9 28.4°
Reaches altitude 10° 07:27:36 10° 213° (SSW) 3,861 9.8 29.3°
Maximum altitude 07:34:57 20° 170° (S) 3,872 10.2 31.0°
Drops below altitude 10° 07:45:03 10° 129° (SE) 5,487 11.4 33.4°
Sets 07:52:12 0° 114° (ESE) 6,927 12.0 35.0°
